owner,sensor,date,latitude,longitude,vertical_datum,wind_speed,wind_to_direction,wind_speed_of_gust,qcFlag 
COMPS,ioos:station:USF.COMPS:FHP:1,2015-06-01T00:00:00Z,28.1530,-82.8010,10.0,5.04,284.91,6.56,'1111122,1111122,1111122' 
COMPS,ioos:station:USF.COMPS:FHP:1,2015-06-01T00:06:00Z,28.1530,-82.8010,10.0,4.29,299.3,6.07,'1111122,1111122,1111122' 
COMPS,ioos:station:USF.COMPS:FHP:1,2015-06-01T00:12:00Z,28.1530,-82.8010,10.0,4.97,298.56,5.87,'1111122,1111122,1111122' 
COMPS,ioos:station:USF.COMPS:FHP:1,2015-06-01T00:18:00Z,28.1530,-82.8010,10.0,4.62,299.63,6.46,'1111122,1111122,1111122' 
COMPS,ioos:station:USF.COMPS:FHP:1,2015-06-01T00:24:00Z,28.1530,-82.8010,10.0,4.48,300.05,5.78,'1111122,1111122,1111122' 
COMPS,ioos:station:USF.COMPS:FHP:1,2015-06-01T00:30:00Z,28.1530,-82.8010,10.0,4.05,307.96,5.09,'1111122,1111122,1111122' 
COMPS,ioos:station:USF.COMPS:FHP:1,2015-06-01T00:36:00Z,28.1530,-82.8010,10.0,3.42,310.82,4.7,'1111122,1111122,1111122' 
COMPS,ioos:station:USF.COMPS:FHP:1,2015-06-01T00:42:00Z,28.1530,-82.8010,10.0,3.05,319.19,3.82,'1111122,1111122,1111122' 
COMPS,ioos:station:USF.COMPS:FHP:1,2015-06-01T00:48:00Z,28.1530,-82.8010,10.0,2.28,328.05,3.23,'1111122,1111122,1111122' 
COMPS,ioos:station:USF.COMPS:FHP:1,2015-06-01T00:54:00Z,28.1530,-82.8010,10.0,1.85,1.32,2.74,'1111122,1111122,1111122' 
COMPS,ioos:station:USF.COMPS:FHP:1,2015-06-01T01:00:00Z,28.1530,-82.8010,10.0,2.02,15.47,2.74,'1111122,1111122,1111122' 
COMPS,ioos:station:USF.COMPS:FHP:1,2015-06-01T01:06:00Z,28.1530,-82.8010,10.0,1.84,42.23,2.74,'1111122,1111122,1111122' 
COMPS,ioos:station:USF.COMPS:FHP:1,2015-06-01T01:12:00Z,28.1530,-82.8010,10.0,2.41,85.4,2.84,'1111122,1111122,1111122' 
COMPS,ioos:station:USF.COMPS:FHP:1,2015-06-01T01:18:00Z,28.1530,-82.8010,10.0,2.36,92.99,2.84,'1111122,1111122,1111122' 
COMPS,ioos:station:USF.COMPS:FHP:1,2015-06-01T01:24:00Z,28.1530,-82.8010,10.0,6.01,117.71,8.91,'1111122,1111122,1111122' 
COMPS,ioos:station:USF.COMPS:FHP:1,2015-06-01T01:30:00Z,28.1530,-82.8010,10.0,6.66,116.24,8.62,'1111122,1111122,1111122' 
COMPS,ioos:station:USF.COMPS:FHP:1,2015-06-01T01:36:00Z,28.1530,-82.8010,10.0,10.04,91.35,13.42,'1111122,1111122,1111122' 
COMPS,ioos:station:USF.COMPS:FHP:1,2015-06-01T01:42:00Z,28.1530,-82.8010,10.0,7.41,112.45,9.8,'1111122,1111122,1111122' 
COMPS,ioos:station:USF.COMPS:FHP:1,2015-06-01T01:48:00Z,28.1530,-82.8010,10.0,7.35,118.66,9.4,'1111122,1111122,1111122' 
COMPS,ioos:station:USF.COMPS:FHP:1,2015-06-01T01:54:00Z,28.1530,-82.8010,10.0,7.04,136.35,8.33,'1111122,1111122,1111122' 
COMPS,ioos:station:USF.COMPS:FHP:1,2015-06-01T03:00:00Z,28.1530,-82.8010,10.0,5.04,173.87,6.07,'1111122,1111122,1111122' 
COMPS,ioos:station:USF.COMPS:FHP:1,2015-06-01T03:06:00Z,28.1530,-82.8010,10.0,3.56,134.89,4.6,'1111122,1111122,1111122' 
COMPS,ioos:station:USF.COMPS:FHP:1,2015-06-01T03:12:00Z,28.1530,-82.8010,10.0,1.94,110.44,2.84,'1111122,1111122,1111122' 
COMPS,ioos:station:USF.COMPS:FHP:1,2015-06-01T03:18:00Z,28.1530,-82.8010,10.0,1.87,140.27,2.45,'1111122,1111122,1111122' 
COMPS,ioos:station:USF.COMPS:FHP:1,2015-06-01T03:24:00Z,28.1530,-82.8010,10.0,2.29,153.0,2.74,'1111122,1111122,1111122' 
COMPS,ioos:station:USF.COMPS:FHP:1,2015-06-01T03:30:00Z,28.1530,-82.8010,10.0,2.25,140.44,2.94,'1111122,1111122,1111122' 
COMPS,ioos:station:USF.COMPS:FHP:1,2015-06-01T03:36:00Z,28.1530,-82.8010,10.0,2.28,136.72,3.03,'1111122,1111122,1111122' 
COMPS,ioos:station:USF.COMPS:FHP:1,2015-06-01T03:42:00Z,28.1530,-82.8010,10.0,2.2,121.65,3.03,'1111122,1111122,1111122' 
COMPS,ioos:station:USF.COMPS:FHP:1,2015-06-01T03:48:00Z,28.1530,-82.8010,10.0,2.46,89.99,3.13,'1111122,1111122,1111122' 
COMPS,ioos:station:USF.COMPS:FHP:1,2015-06-01T03:54:00Z,28.1530,-82.8010,10.0,2.07,56.49,2.94,'1111122,1111122,1111122' 
COMPS,ioos:station:USF.COMPS:FHP:1,2015-06-01T04:00:00Z,28.1530,-82.8010,10.0,1.79,60.89,2.25,'1111122,1111122,1111122' 
COMPS,ioos:station:USF.COMPS:FHP:1,2015-06-01T04:06:00Z,28.1530,-82.8010,10.0,2.96,77.77,4.21,'1111122,1111122,1111122' 
COMPS,ioos:station:USF.COMPS:FHP:1,2015-06-01T04:12:00Z,28.1530,-82.8010,10.0,4.51,80.42,5.19,'1111122,1111122,1111122' 
COMPS,ioos:station:USF.COMPS:FHP:1,2015-06-01T04:18:00Z,28.1530,-82.8010,10.0,3.45,87.85,3.82,'1111122,1111122,1111122' 
COMPS,ioos:station:USF.COMPS:FHP:1,2015-06-01T04:24:00Z,28.1530,-82.8010,10.0,2.97,105.67,3.62,'1111122,1111122,1111122' 
COMPS,ioos:station:USF.COMPS:FHP:1,2015-06-01T04:30:00Z,28.1530,-82.8010,10.0,1.6,114.76,2.15,'1111122,1111122,1111122' 
COMPS,ioos:station:USF.COMPS:FHP:1,2015-06-01T04:36:00Z,28.1530,-82.8010,10.0,1.24,109.88,1.66,'1111122,1111122,1111122' 
COMPS,ioos:station:USF.COMPS:FHP:1,2015-06-01T04:42:00Z,28.1530,-82.8010,10.0,1.69,77.47,2.15,'1111122,1111122,1111122' 
COMPS,ioos:station:USF.COMPS:FHP:1,2015-06-01T04:48:00Z,28.1530,-82.8010,10.0,2.27,91.52,2.64,'1111122,1111122,1111122' 
COMPS,ioos:station:USF.COMPS:FHP:1,2015-06-01T04:54:00Z,28.1530,-82.8010,10.0,2.29,86.34,2.74,'1111122,1111122,1111122' 
COMPS,ioos:station:USF.COMPS:FHP:1,2015-06-01T05:00:00Z,28.1530,-82.8010,10.0,2.18,84.77,2.54,'1111122,1111122,1111122' 
COMPS,ioos:station:USF.COMPS:FHP:1,2015-06-01T05:06:00Z,28.1530,-82.8010,10.0,2.16,62.9,2.64,'1111122,1111122,1111122' 
COMPS,ioos:station:USF.COMPS:FHP:1,2015-06-01T05:12:00Z,28.1530,-82.8010,10.0,2.39,73.39,3.43,'1111122,1111122,1111122' 
COMPS,ioos:station:USF.COMPS:FHP:1,2015-06-01T05:18:00Z,28.1530,-82.8010,10.0,2.97,83.89,3.43,'1111122,1111122,1111122' 
COMPS,ioos:station:USF.COMPS:FHP:1,2015-06-01T05:24:00Z,28.1530,-82.8010,10.0,2.96,91.53,3.23,'1111122,1111122,1111122' 
COMPS,ioos:station:USF.COMPS:FHP:1,2015-06-01T05:30:00Z,28.1530,-82.8010,10.0,2.87,92.08,3.33,'1111122,1111122,1111122' 
COMPS,ioos:station:USF.COMPS:FHP:1,2015-06-01T05:36:00Z,28.1530,-82.8010,10.0,2.91,79.36,3.52,'1111122,1111122,1111122' 
COMPS,ioos:station:USF.COMPS:FHP:1,2015-06-01T05:42:00Z,28.1530,-82.8010,10.0,2.69,90.85,3.62,'1111122,1111122,1111122' 
COMPS,ioos:station:USF.COMPS:FHP:1,2015-06-01T05:48:00Z,28.1530,-82.8010,10.0,3.44,89.21,4.21,'1111122,1111122,1111122' 
COMPS,ioos:station:USF.COMPS:FHP:1,2015-06-01T05:54:00Z,28.1530,-82.8010,10.0,3.56,86.75,4.01,'1111122,1111122,1111122' 
COMPS,ioos:station:USF.COMPS:FHP:1,2015-06-01T06:00:00Z,28.1530,-82.8010,10.0,3.8,83.28,4.8,'1111122,1111122,1111122' 
COMPS,ioos:station:USF.COMPS:FHP:1,2015-06-01T06:06:00Z,28.1530,-82.8010,10.0,3.84,80.64,4.5,'1111122,1111122,1111122' 
COMPS,ioos:station:USF.COMPS:FHP:1,2015-06-01T06:12:00Z,28.1530,-82.8010,10.0,4.08,85.08,4.8,'1111122,1111122,1111122' 
COMPS,ioos:station:USF.COMPS:FHP:1,2015-06-01T06:18:00Z,28.1530,-82.8010,10.0,3.43,89.34,4.31,'1111122,1111122,1111122' 
COMPS,ioos:station:USF.COMPS:FHP:1,2015-06-01T06:24:00Z,28.1530,-82.8010,10.0,2.85,91.03,3.62,'1111122,1111122,1111122' 
COMPS,ioos:station:USF.COMPS:FHP:1,2015-06-01T06:30:00Z,28.1530,-82.8010,10.0,2.52,95.68,3.03,'1111122,1111122,1111122' 
COMPS,ioos:station:USF.COMPS:FHP:1,2015-06-01T06:36:00Z,28.1530,-82.8010,10.0,2.44,97.22,2.94,'1111122,1111122,1111122' 
COMPS,ioos:station:USF.COMPS:FHP:1,2015-06-01T06:42:00Z,28.1530,-82.8010,10.0,2.71,111.04,3.52,'1111122,1111122,1111122' 
COMPS,ioos:station:USF.COMPS:FHP:1,2015-06-01T06:48:00Z,28.1530,-82.8010,10.0,2.16,117.22,2.74,'1111122,1111122,1111122' 
COMPS,ioos:station:USF.COMPS:FHP:1,2015-06-01T06:54:00Z,28.1530,-82.8010,10.0,1.89,116.23,2.54,'1111122,1111122,1111122' 
COMPS,ioos:station:USF.COMPS:FHP:1,2015-06-01T07:00:00Z,28.1530,-82.8010,10.0,1.23,115.69,2.05,'1111122,1111122,1111122' 
COMPS,ioos:station:USF.COMPS:FHP:1,2015-06-01T07:06:00Z,28.1530,-82.8010,10.0,0.38,121.4,1.27,'1111122,1111122,1111122' 
COMPS,ioos:station:USF.COMPS:FHP:1,2015-06-01T07:12:00Z,28.1530,-82.8010,10.0,1.26,96.22,2.25,'1111122,1111122,1111122' 
COMPS,ioos:station:USF.COMPS:FHP:1,2015-06-01T07:18:00Z,28.1530,-82.8010,10.0,1.56,91.03,1.96,'1111122,1111122,1111122' 
COMPS,ioos:station:USF.COMPS:FHP:1,2015-06-01T07:24:00Z,28.1530,-82.8010,10.0,1.98,103.4,2.35,'1111122,1111122,1111122' 
COMPS,ioos:station:USF.COMPS:FHP:1,2015-06-01T07:30:00Z,28.1530,-82.8010,10.0,1.56,106.41,2.15,'1111122,1111122,1111122' 
COMPS,ioos:station:USF.COMPS:FHP:1,2015-06-01T07:36:00Z,28.1530,-82.8010,10.0,1.91,104.96,2.35,'1111122,1111122,1111122' 
COMPS,ioos:station:USF.COMPS:FHP:1,2015-06-01T07:42:00Z,28.1530,-82.8010,10.0,2.49,109.76,3.33,'1111122,1111122,1111122' 
COMPS,ioos:station:USF.COMPS:FHP:1,2015-06-01T07:48:00Z,28.1530,-82.8010,10.0,2.77,101.53,3.43,'1111122,1111122,1111122' 
COMPS,ioos:station:USF.COMPS:FHP:1,2015-06-01T07:54:00Z,28.1530,-82.8010,10.0,2.13,109.21,2.94,'1111122,1111122,1111122' 
COMPS,ioos:station:USF.COMPS:FHP:1,2015-06-01T08:00:00Z,28.1530,-82.8010,10.0,2.59,110.53,3.52,'1111122,1111122,1111122' 
COMPS,ioos:station:USF.COMPS:FHP:1,2015-06-01T08:06:00Z,28.1530,-82.8010,10.0,2.43,119.39,2.84,'1111122,1111122,1111122' 
COMPS,ioos:station:USF.COMPS:FHP:1,2015-06-01T08:12:00Z,28.1530,-82.8010,10.0,2.72,113.74,3.62,'1111122,1111122,1111122' 
COMPS,ioos:station:USF.COMPS:FHP:1,2015-06-01T08:18:00Z,28.1530,-82.8010,10.0,3.0,119.27,3.82,'1111122,1111122,1111122' 
COMPS,ioos:station:USF.COMPS:FHP:1,2015-06-01T08:24:00Z,28.1530,-82.8010,10.0,3.09,111.46,4.01,'1111122,1111122,1111122' 
COMPS,ioos:station:USF.COMPS:FHP:1,2015-06-01T08:30:00Z,28.1530,-82.8010,10.0,3.04,109.39,3.72,'1111122,1111122,1111122' 
COMPS,ioos:station:USF.COMPS:FHP:1,2015-06-01T08:36:00Z,28.1530,-82.8010,10.0,2.54,119.47,3.13,'1111122,1111122,1111122' 
COMPS,ioos:station:USF.COMPS:FHP:1,2015-06-01T08:42:00Z,28.1530,-82.8010,10.0,2.95,126.84,4.21,'1111122,1111122,1111122' 
COMPS,ioos:station:USF.COMPS:FHP:1,2015-06-01T08:48:00Z,28.1530,-82.8010,10.0,2.62,116.23,3.52,'1111122,1111122,1111122' 
COMPS,ioos:station:USF.COMPS:FHP:1,2015-06-01T08:54:00Z,28.1530,-82.8010,10.0,2.39,119.98,2.94,'1111122,1111122,1111122' 
COMPS,ioos:station:USF.COMPS:FHP:1,2015-06-01T09:00:00Z,28.1530,-82.8010,10.0,2.53,112.06,3.52,'1111122,1111122,1111122' 
COMPS,ioos:station:USF.COMPS:FHP:1,2015-06-01T09:06:00Z,28.1530,-82.8010,10.0,2.58,99.36,3.13,'1111122,1111122,1111122' 
COMPS,ioos:station:USF.COMPS:FHP:1,2015-06-01T09:12:00Z,28.1530,-82.8010,10.0,3.01,105.24,4.21,'1111122,1111122,1111122' 
COMPS,ioos:station:USF.COMPS:FHP:1,2015-06-01T09:18:00Z,28.1530,-82.8010,10.0,3.29,114.97,4.11,'1111122,1111122,1111122' 
COMPS,ioos:station:USF.COMPS:FHP:1,2015-06-01T09:24:00Z,28.1530,-82.8010,10.0,3.42,117.82,4.6,'1111122,1111122,1111122' 
COMPS,ioos:station:USF.COMPS:FHP:1,2015-06-01T09:30:00Z,28.1530,-82.8010,10.0,4.16,120.29,4.9,'1111122,1111122,1111122' 
COMPS,ioos:station:USF.COMPS:FHP:1,2015-06-01T09:36:00Z,28.1530,-82.8010,10.0,3.43,121.53,4.11,'1111122,1111122,1111122' 
COMPS,ioos:station:USF.COMPS:FHP:1,2015-06-01T09:42:00Z,28.1530,-82.8010,10.0,3.53,120.24,4.5,'1111122,1111122,1111122' 
COMPS,ioos:station:USF.COMPS:FHP:1,2015-06-01T09:48:00Z,28.1530,-82.8010,10.0,3.22,115.75,4.6,'1111122,1111122,1111122' 
COMPS,ioos:station:USF.COMPS:FHP:1,2015-06-01T09:54:00Z,28.1530,-82.8010,10.0,3.02,117.22,3.82,'1111122,1111122,1111122' 
COMPS,ioos:station:USF.COMPS:FHP:1,2015-06-01T10:00:00Z,28.1530,-82.8010,10.0,2.92,126.62,3.82,'1111122,1111122,1111122' 
COMPS,ioos:station:USF.COMPS:FHP:1,2015-06-01T10:06:00Z,28.1530,-82.8010,10.0,3.38,128.16,4.11,'1111122,1111122,1111122' 
COMPS,ioos:station:USF.COMPS:FHP:1,2015-06-01T10:12:00Z,28.1530,-82.8010,10.0,3.22,131.2,4.11,'1111122,1111122,1111122' 
COMPS,ioos:station:USF.COMPS:FHP:1,2015-06-01T10:18:00Z,28.1530,-82.8010,10.0,3.3,137.27,3.72,'1111122,1111122,1111122' 
COMPS,ioos:station:USF.COMPS:FHP:1,2015-06-01T10:24:00Z,28.1530,-82.8010,10.0,3.99,135.07,4.8,'1111122,1111122,1111122' 
COMPS,ioos:station:USF.COMPS:FHP:1,2015-06-01T10:30:00Z,28.1530,-82.8010,10.0,3.05,134.88,3.82,'1111122,1111122,1111122' 
COMPS,ioos:station:USF.COMPS:FHP:1,2015-06-01T10:36:00Z,28.1530,-82.8010,10.0,3.08,135.21,3.72,'1111122,1111122,1111122' 
COMPS,ioos:station:USF.COMPS:FHP:1,2015-06-01T10:42:00Z,28.1530,-82.8010,10.0,2.61,131.02,3.33,'1111122,1111122,1111122' 
COMPS,ioos:station:USF.COMPS:FHP:1,2015-06-01T10:48:00Z,28.1530,-82.8010,10.0,2.55,135.08,3.33,'1111122,1111122,1111122' 
COMPS,ioos:station:USF.COMPS:FHP:1,2015-06-01T10:54:00Z,28.1530,-82.8010,10.0,2.63,135.01,3.43,'1111122,1111122,1111122' 
COMPS,ioos:station:USF.COMPS:FHP:1,2015-06-01T11:00:00Z,28.1530,-82.8010,10.0,2.73,131.85,3.33,'1111122,1111122,1111122' 
COMPS,ioos:station:USF.COMPS:FHP:1,2015-06-01T11:06:00Z,28.1530,-82.8010,10.0,2.86,137.13,3.52,'1111122,1111122,1111122' 
COMPS,ioos:station:USF.COMPS:FHP:1,2015-06-01T11:12:00Z,28.1530,-82.8010,10.0,3.08,138.98,3.62,'1111122,1111122,1111122' 
COMPS,ioos:station:USF.COMPS:FHP:1,2015-06-01T11:18:00Z,28.1530,-82.8010,10.0,3.28,144.91,4.01,'1111122,1111122,1111122' 
COMPS,ioos:station:USF.COMPS:FHP:1,2015-06-01T11:24:00Z,28.1530,-82.8010,10.0,3.46,148.68,4.21,'1111122,1111122,1111122' 
COMPS,ioos:station:USF.COMPS:FHP:1,2015-06-01T11:30:00Z,28.1530,-82.8010,10.0,3.26,153.26,4.01,'1111122,1111122,1111122' 
COMPS,ioos:station:USF.COMPS:FHP:1,2015-06-01T11:36:00Z,28.1530,-82.8010,10.0,3.65,155.02,4.99,'1111122,1111122,1111122' 
COMPS,ioos:station:USF.COMPS:FHP:1,2015-06-01T11:42:00Z,28.1530,-82.8010,10.0,3.66,146.52,4.31,'1111122,1111122,1111122' 
COMPS,ioos:station:USF.COMPS:FHP:1,2015-06-01T11:48:00Z,28.1530,-82.8010,10.0,3.38,131.75,4.11,'1111122,1111122,1111122' 
COMPS,ioos:station:USF.COMPS:FHP:1,2015-06-01T11:54:00Z,28.1530,-82.8010,10.0,3.21,138.2,4.01,'1111122,1111122,1111122' 
COMPS,ioos:station:USF.COMPS:FHP:1,2015-06-01T12:00:00Z,28.1530,-82.8010,10.0,3.38,139.24,4.21,'1111122,1111122,1111122' 
COMPS,ioos:station:USF.COMPS:FHP:1,2015-06-01T12:06:00Z,28.1530,-82.8010,10.0,3.4,143.86,4.11,'1111122,1111122,1111122' 
COMPS,ioos:station:USF.COMPS:FHP:1,2015-06-01T12:12:00Z,28.1530,-82.8010,10.0,3.02,143.48,3.62,'1111122,1111122,1111122' 
COMPS,ioos:station:USF.COMPS:FHP:1,2015-06-01T12:18:00Z,28.1530,-82.8010,10.0,2.78,147.7,3.52,'1111122,1111122,1111122' 
COMPS,ioos:station:USF.COMPS:FHP:1,2015-06-01T12:24:00Z,28.1530,-82.8010,10.0,2.82,131.42,4.01,'1111122,1111122,1111122' 
COMPS,ioos:station:USF.COMPS:FHP:1,2015-06-01T12:30:00Z,28.1530,-82.8010,10.0,2.85,142.34,3.43,'1111122,1111122,1111122' 
COMPS,ioos:station:USF.COMPS:FHP:1,2015-06-01T12:36:00Z,28.1530,-82.8010,10.0,2.85,140.86,3.72,'1111122,1111122,1111122' 
COMPS,ioos:station:USF.COMPS:FHP:1,2015-06-01T12:42:00Z,28.1530,-82.8010,10.0,2.68,123.78,3.62,'1111122,1111122,1111122' 
COMPS,ioos:station:USF.COMPS:FHP:1,2015-06-01T12:48:00Z,28.1530,-82.8010,10.0,2.65,124.36,3.43,'1111122,1111122,1111122' 
COMPS,ioos:station:USF.COMPS:FHP:1,2015-06-01T12:54:00Z,28.1530,-82.8010,10.0,2.68,116.33,3.62,'1111122,1111122,1111122' 
COMPS,ioos:station:USF.COMPS:FHP:1,2015-06-01T13:00:00Z,28.1530,-82.8010,10.0,3.0,116.82,4.01,'1111122,1111122,1111122' 
COMPS,ioos:station:USF.COMPS:FHP:1,2015-06-01T13:06:00Z,28.1530,-82.8010,10.0,3.19,131.01,3.72,'1111122,1111122,1111122' 
COMPS,ioos:station:USF.COMPS:FHP:1,2015-06-01T13:12:00Z,28.1530,-82.8010,10.0,3.34,141.73,3.92,'1111122,1111122,1111122' 
COMPS,ioos:station:USF.COMPS:FHP:1,2015-06-01T13:18:00Z,28.1530,-82.8010,10.0,3.27,134.88,3.72,'1111122,1111122,1111122' 
COMPS,ioos:station:USF.COMPS:FHP:1,2015-06-01T13:24:00Z,28.1530,-82.8010,10.0,3.29,146.89,3.92,'1111122,1111122,1111122' 
COMPS,ioos:station:USF.COMPS:FHP:1,2015-06-01T13:30:00Z,28.1530,-82.8010,10.0,3.2,146.34,3.82,'1111122,1111122,1111122' 
COMPS,ioos:station:USF.COMPS:FHP:1,2015-06-01T13:36:00Z,28.1530,-82.8010,10.0,3.08,149.51,4.11,'1111122,1111122,1111122' 
COMPS,ioos:station:USF.COMPS:FHP:1,2015-06-01T13:42:00Z,28.1530,-82.8010,10.0,3.01,153.1,3.62,'1111122,1111122,1111122' 
COMPS,ioos:station:USF.COMPS:FHP:1,2015-06-01T13:48:00Z,28.1530,-82.8010,10.0,2.94,163.43,4.01,'1111122,1111122,1111122' 
COMPS,ioos:station:USF.COMPS:FHP:1,2015-06-01T13:54:00Z,28.1530,-82.8010,10.0,2.57,152.1,3.33,'1111122,1111122,1111122' 
COMPS,ioos:station:USF.COMPS:FHP:1,2015-06-01T14:00:00Z,28.1530,-82.8010,10.0,2.48,152.17,3.13,'1111122,1111122,1111122' 
COMPS,ioos:station:USF.COMPS:FHP:1,2015-06-01T14:06:00Z,28.1530,-82.8010,10.0,2.27,158.86,3.13,'1111122,1111122,1111122' 
COMPS,ioos:station:USF.COMPS:FHP:1,2015-06-01T14:12:00Z,28.1530,-82.8010,10.0,2.05,161.64,3.03,'1111122,1111122,1111122' 
COMPS,ioos:station:USF.COMPS:FHP:1,2015-06-01T14:18:00Z,28.1530,-82.8010,10.0,1.7,168.7,2.54,'1111122,1111122,1111122' 
COMPS,ioos:station:USF.COMPS:FHP:1,2015-06-01T14:24:00Z,28.1530,-82.8010,10.0,2.07,166.12,2.54,'1111122,1111122,1111122' 
COMPS,ioos:station:USF.COMPS:FHP:1,2015-06-01T14:30:00Z,28.1530,-82.8010,10.0,1.88,154.88,2.64,'1111122,1111122,1111122' 
COMPS,ioos:station:USF.COMPS:FHP:1,2015-06-01T14:36:00Z,28.1530,-82.8010,10.0,1.25,146.62,2.15,'1111122,1111122,1111122' 
COMPS,ioos:station:USF.COMPS:FHP:1,2015-06-01T14:42:00Z,28.1530,-82.8010,10.0,1.0,190.38,1.66,'1111122,1111122,1111122' 
COMPS,ioos:station:USF.COMPS:FHP:1,2015-06-01T14:48:00Z,28.1530,-82.8010,10.0,0.95,178.91,1.66,'1111122,1111122,1111122' 
COMPS,ioos:station:USF.COMPS:FHP:1,2015-06-01T14:54:00Z,28.1530,-82.8010,10.0,1.24,186.49,2.35,'1111122,1111122,1111122' 
COMPS,ioos:station:USF.COMPS:FHP:1,2015-06-01T15:00:00Z,28.1530,-82.8010,10.0,1.51,195.17,2.45,'1111122,1111122,1111122' 
COMPS,ioos:station:USF.COMPS:FHP:1,2015-06-01T15:06:00Z,28.1530,-82.8010,10.0,1.17,172.8,2.05,'1111122,1111122,1111122' 
COMPS,ioos:station:USF.COMPS:FHP:1,2015-06-01T15:12:00Z,28.1530,-82.8010,10.0,0.41,154.85,1.37,'1111122,1111122,1111122' 
COMPS,ioos:station:USF.COMPS:FHP:1,2015-06-01T15:18:00Z,28.1530,-82.8010,10.0,0.96,166.5,1.76,'1111122,1111122,1111122' 
COMPS,ioos:station:USF.COMPS:FHP:1,2015-06-01T15:24:00Z,28.1530,-82.8010,10.0,1.25,169.7,1.86,'1111122,1111122,1111122' 
COMPS,ioos:station:USF.COMPS:FHP:1,2015-06-01T15:30:00Z,28.1530,-82.8010,10.0,1.2,182.69,1.76,'1111122,1111122,1111122' 
COMPS,ioos:station:USF.COMPS:FHP:1,2015-06-01T15:36:00Z,28.1530,-82.8010,10.0,1.3,209.24,2.05,'1111122,1111122,1111122' 
COMPS,ioos:station:USF.COMPS:FHP:1,2015-06-01T15:42:00Z,28.1530,-82.8010,10.0,0.82,226.22,1.47,'1111122,1111122,1111122' 
COMPS,ioos:station:USF.COMPS:FHP:1,2015-06-01T15:48:00Z,28.1530,-82.8010,10.0,0.97,207.43,1.66,'1111122,1111122,1111122' 
COMPS,ioos:station:USF.COMPS:FHP:1,2015-06-01T15:54:00Z,28.1530,-82.8010,10.0,0.89,230.45,1.56,'1111122,1111122,1111122' 
COMPS,ioos:station:USF.COMPS:FHP:1,2015-06-01T16:00:00Z,28.1530,-82.8010,10.0,1.52,246.72,2.15,'1111122,1111122,1111122' 
COMPS,ioos:station:USF.COMPS:FHP:1,2015-06-01T16:06:00Z,28.1530,-82.8010,10.0,1.33,272.52,1.86,'1111122,1111122,1111122' 
COMPS,ioos:station:USF.COMPS:FHP:1,2015-06-01T16:12:00Z,28.1530,-82.8010,10.0,1.63,269.4,2.15,'1111122,1111122,1111122' 
COMPS,ioos:station:USF.COMPS:FHP:1,2015-06-01T16:18:00Z,28.1530,-82.8010,10.0,1.67,268.53,2.25,'1111122,1111122,1111122' 
COMPS,ioos:station:USF.COMPS:FHP:1,2015-06-01T16:24:00Z,28.1530,-82.8010,10.0,1.97,273.86,2.64,'1111122,1111122,1111122' 
COMPS,ioos:station:USF.COMPS:FHP:1,2015-06-01T16:30:00Z,28.1530,-82.8010,10.0,1.57,269.49,2.64,'1111122,1111122,1111122' 
COMPS,ioos:station:USF.COMPS:FHP:1,2015-06-01T16:36:00Z,28.1530,-82.8010,10.0,1.98,276.08,2.84,'1111122,1111122,1111122' 
COMPS,ioos:station:USF.COMPS:FHP:1,2015-06-01T16:42:00Z,28.1530,-82.8010,10.0,2.06,288.72,2.94,'1111122,1111122,1111122' 
COMPS,ioos:station:USF.COMPS:FHP:1,2015-06-01T16:48:00Z,28.1530,-82.8010,10.0,2.14,265.5,2.84,'1111122,1111122,1111122' 
COMPS,ioos:station:USF.COMPS:FHP:1,2015-06-01T16:54:00Z,28.1530,-82.8010,10.0,2.14,280.14,2.74,'1111122,1111122,1111122' 
COMPS,ioos:station:USF.COMPS:FHP:1,2015-06-01T17:00:00Z,28.1530,-82.8010,10.0,2.43,286.45,3.03,'1111122,1111122,1111122' 
COMPS,ioos:station:USF.COMPS:FHP:1,2015-06-01T17:06:00Z,28.1530,-82.8010,10.0,2.4,274.54,3.33,'1111122,1111122,1111122' 
COMPS,ioos:station:USF.COMPS:FHP:1,2015-06-01T17:12:00Z,28.1530,-82.8010,10.0,2.94,271.71,3.52,'1111122,1111122,1111122' 
COMPS,ioos:station:USF.COMPS:FHP:1,2015-06-01T17:18:00Z,28.1530,-82.8010,10.0,2.47,260.29,2.84,'1111122,1111122,1111122' 
COMPS,ioos:station:USF.COMPS:FHP:1,2015-06-01T17:24:00Z,28.1530,-82.8010,10.0,2.52,265.87,3.23,'1111122,1111122,1111122' 
COMPS,ioos:station:USF.COMPS:FHP:1,2015-06-01T17:30:00Z,28.1530,-82.8010,10.0,3.04,268.57,3.82,'1111122,1111122,1111122' 
COMPS,ioos:station:USF.COMPS:FHP:1,2015-06-01T17:36:00Z,28.1530,-82.8010,10.0,2.68,267.3,3.33,'1111122,1111122,1111122' 
COMPS,ioos:station:USF.COMPS:FHP:1,2015-06-01T17:42:00Z,28.1530,-82.8010,10.0,3.46,265.14,4.31,'1111122,1111122,1111122' 
COMPS,ioos:station:USF.COMPS:FHP:1,2015-06-01T17:48:00Z,28.1530,-82.8010,10.0,3.45,268.9,4.11,'1111122,1111122,1111122' 
COMPS,ioos:station:USF.COMPS:FHP:1,2015-06-01T17:54:00Z,28.1530,-82.8010,10.0,3.18,265.96,4.01,'1111122,1111122,1111122' 
COMPS,ioos:station:USF.COMPS:FHP:1,2015-06-01T18:00:00Z,28.1530,-82.8010,10.0,3.53,259.25,4.21,'1111122,1111122,1111122' 
COMPS,ioos:station:USF.COMPS:FHP:1,2015-06-01T18:06:00Z,28.1530,-82.8010,10.0,3.49,262.83,4.41,'1111122,1111122,1111122' 
COMPS,ioos:station:USF.COMPS:FHP:1,2015-06-01T18:12:00Z,28.1530,-82.8010,10.0,3.84,260.75,4.5,'1111122,1111122,1111122' 
COMPS,ioos:station:USF.COMPS:FHP:1,2015-06-01T18:18:00Z,28.1530,-82.8010,10.0,3.81,266.34,4.41,'1111122,1111122,1111122' 
COMPS,ioos:station:USF.COMPS:FHP:1,2015-06-01T18:24:00Z,28.1530,-82.8010,10.0,4.15,262.91,4.9,'1111122,1111122,1111122' 
COMPS,ioos:station:USF.COMPS:FHP:1,2015-06-01T18:30:00Z,28.1530,-82.8010,10.0,3.55,256.58,4.41,'1111122,1111122,1111122' 
COMPS,ioos:station:USF.COMPS:FHP:1,2015-06-01T18:36:00Z,28.1530,-82.8010,10.0,3.18,265.05,3.92,'1111122,1111122,1111122' 
COMPS,ioos:station:USF.COMPS:FHP:1,2015-06-01T18:42:00Z,28.1530,-82.8010,10.0,3.39,260.99,4.6,'1111122,1111122,1111122' 
COMPS,ioos:station:USF.COMPS:FHP:1,2015-06-01T18:48:00Z,28.1530,-82.8010,10.0,4.1,245.49,4.7,'1111122,1111122,1111122' 
COMPS,ioos:station:USF.COMPS:FHP:1,2015-06-01T18:54:00Z,28.1530,-82.8010,10.0,3.99,242.08,4.9,'1111122,1111122,1111122' 
COMPS,ioos:station:USF.COMPS:FHP:1,2015-06-01T19:00:00Z,28.1530,-82.8010,10.0,4.03,247.16,4.8,'1111122,1111122,1111122' 
COMPS,ioos:station:USF.COMPS:FHP:1,2015-06-01T19:06:00Z,28.1530,-82.8010,10.0,4.24,250.34,4.9,'1111122,1111122,1111122' 
COMPS,ioos:station:USF.COMPS:FHP:1,2015-06-01T19:12:00Z,28.1530,-82.8010,10.0,4.32,240.62,5.39,'1111122,1111122,1111122' 
COMPS,ioos:station:USF.COMPS:FHP:1,2015-06-01T19:18:00Z,28.1530,-82.8010,10.0,4.48,242.64,5.19,'1111122,1111122,1111122' 
COMPS,ioos:station:USF.COMPS:FHP:1,2015-06-01T19:24:00Z,28.1530,-82.8010,10.0,4.57,243.75,5.39,'1111122,1111122,1111122' 
COMPS,ioos:station:USF.COMPS:FHP:1,2015-06-01T19:30:00Z,28.1530,-82.8010,10.0,4.53,242.37,5.29,'1111122,1111122,1111122' 
COMPS,ioos:station:USF.COMPS:FHP:1,2015-06-01T19:36:00Z,28.1530,-82.8010,10.0,4.38,250.29,4.99,'1111122,1111122,1111122' 
COMPS,ioos:station:USF.COMPS:FHP:1,2015-06-01T19:42:00Z,28.1530,-82.8010,10.0,4.58,250.69,5.78,'1111122,1111122,1111122' 
COMPS,ioos:station:USF.COMPS:FHP:1,2015-06-01T19:48:00Z,28.1530,-82.8010,10.0,4.57,251.92,5.58,'1111122,1111122,1111122' 
COMPS,ioos:station:USF.COMPS:FHP:1,2015-06-01T19:54:00Z,28.1530,-82.8010,10.0,4.73,252.67,5.68,'1111122,1111122,1111122' 
COMPS,ioos:station:USF.COMPS:FHP:1,2015-06-01T20:00:00Z,28.1530,-82.8010,10.0,4.7,250.17,5.87,'1111122,1111122,1111122' 
COMPS,ioos:station:USF.COMPS:FHP:1,2015-06-01T20:06:00Z,28.1530,-82.8010,10.0,4.67,253.24,5.48,'1111122,1111122,1111122' 
COMPS,ioos:station:USF.COMPS:FHP:1,2015-06-01T20:12:00Z,28.1530,-82.8010,10.0,4.8,253.63,5.68,'1111122,1111122,1111122' 
COMPS,ioos:station:USF.COMPS:FHP:1,2015-06-01T20:18:00Z,28.1530,-82.8010,10.0,4.76,252.21,5.58,'1111122,1111122,1111122' 
COMPS,ioos:station:USF.COMPS:FHP:1,2015-06-01T20:24:00Z,28.1530,-82.8010,10.0,4.74,256.28,5.78,'1111122,1111122,1111122' 
COMPS,ioos:station:USF.COMPS:FHP:1,2015-06-01T20:30:00Z,28.1530,-82.8010,10.0,5.29,256.91,6.27,'1111122,1111122,1111122' 